Time,TemperatureF,DewpointF,PressureIn,WindDirection,WindDirectionDegrees,WindSpeedMPH,WindSpeedGustMPH,Humidity,HourlyPrecipIn,Conditions,Clouds,dailyrainin,SoftwareType,DateUTC
2013-06-16 01:00:00,83.0,-99.9,30.06,SE,140,7.0,8.0,-999,-99.99,,,-99.99,,2013-06-16 05:00:00,
2013-06-16 01:34:00,83.0,-99.9,30.06,SE,140,7.0,8.0,-999,-99.99,,,-99.99,,2013-06-16 05:34:00,
2013-06-16 01:43:00,83.0,-99.9,30.06,SE,140,7.0,8.0,-999,-99.99,,,-99.99,,2013-06-16 05:43:00,
2013-06-16 01:53:00,83.0,-99.9,30.06,SE,140,7.0,8.0,-999,-99.99,,,-99.99,,2013-06-16 05:53:00,
2013-06-16 03:00:00,82.0,-99.9,30.03,ESE,120,8.0,8.0,-999,-99.99,,,-99.99,,2013-06-16 07:00:00,
2013-06-16 03:23:00,82.0,-99.9,30.03,ESE,120,8.0,8.0,-999,-99.99,,,-99.99,,2013-06-16 07:23:00,
2013-06-16 03:33:00,82.0,-99.9,30.03,ESE,120,8.0,8.0,-999,-99.99,,,-99.99,,2013-06-16 07:33:00,
2013-06-16 03:43:00,82.0,-99.9,30.03,ESE,120,8.0,8.0,-999,-99.99,,,-99.99,,2013-06-16 07:43:00,
2013-06-16 03:53:00,82.0,-99.9,30.03,ESE,120,8.0,8.0,-999,-99.99,,,-99.99,,2013-06-16 07:53:00,
2013-06-16 04:00:00,83.0,-99.9,30.02,ESE,120,6.0,7.0,-999,-99.99,,,-99.99,,2013-06-16 08:00:00,
2013-06-16 04:34:00,83.0,-99.9,30.02,ESE,120,6.0,7.0,-999,-99.99,,,-99.99,,2013-06-16 08:34:00,
2013-06-16 04:44:00,83.0,-99.9,30.02,ESE,120,6.0,7.0,-999,-99.99,,,-99.99,,2013-06-16 08:44:00,
2013-06-16 04:54:00,83.0,-99.9,30.02,ESE,120,6.0,7.0,-999,-99.99,,,-99.99,,2013-06-16 08:54:00,
2013-06-16 07:00:00,82.0,-99.9,30.04,East,100,9.0,10.0,-999,-99.99,,,-99.99,,2013-06-16 11:00:00,
2013-06-16 07:22:00,82.0,-99.9,30.04,East,100,9.0,10.0,-999,-99.99,,,-99.99,,2013-06-16 11:22:00,
2013-06-16 07:34:00,82.0,-99.9,30.04,East,100,9.0,10.0,-999,-99.99,,,-99.99,,2013-06-16 11:34:00,
2013-06-16 07:43:00,82.0,-99.9,30.04,East,100,9.0,10.0,-999,-99.99,,,-99.99,,2013-06-16 11:43:00,
2013-06-16 07:53:00,82.0,-99.9,30.04,East,100,9.0,10.0,-999,-99.99,,,-99.99,,2013-06-16 11:53:00,
2013-06-16 08:00:00,82.0,-99.9,30.05,East,80,10.0,13.0,-999,-99.99,,,-99.99,,2013-06-16 12:00:00,
2013-06-16 08:33:00,82.0,-99.9,30.05,East,80,10.0,13.0,-999,-99.99,,,-99.99,,2013-06-16 12:33:00,
2013-06-16 08:43:00,82.0,-99.9,30.05,East,80,10.0,13.0,-999,-99.99,,,-99.99,,2013-06-16 12:43:00,
2013-06-16 08:53:00,82.0,-99.9,30.05,East,80,10.0,13.0,-999,-99.99,,,-99.99,,2013-06-16 12:53:00,
2013-06-16 09:00:00,83.0,-99.9,30.07,East,80,9.0,12.0,-999,-99.99,,,-99.99,,2013-06-16 13:00:00,
2013-06-16 09:22:00,83.0,-99.9,30.07,East,80,9.0,12.0,-999,-99.99,,,-99.99,,2013-06-16 13:22:00,
2013-06-16 09:34:00,83.0,-99.9,30.07,East,80,9.0,12.0,-999,-99.99,,,-99.99,,2013-06-16 13:34:00,
2013-06-16 09:43:00,83.0,-99.9,30.07,East,80,9.0,12.0,-999,-99.99,,,-99.99,,2013-06-16 13:43:00,
2013-06-16 09:54:00,83.0,-99.9,30.07,East,80,9.0,12.0,-999,-99.99,,,-99.99,,2013-06-16 13:54:00,
2013-06-16 10:00:00,83.0,-99.9,30.08,East,90,10.0,13.0,-999,-99.99,,,-99.99,,2013-06-16 14:00:00,
2013-06-16 10:23:00,83.0,-99.9,30.08,East,90,10.0,13.0,-999,-99.99,,,-99.99,,2013-06-16 14:23:00,
2013-06-16 10:34:00,83.0,-99.9,30.08,East,90,10.0,13.0,-999,-99.99,,,-99.99,,2013-06-16 14:34:00,
2013-06-16 10:44:00,83.0,-99.9,30.08,East,90,10.0,13.0,-999,-99.99,,,-99.99,,2013-06-16 14:44:00,
2013-06-16 10:53:00,83.0,-99.9,30.08,East,90,10.0,13.0,-999,-99.99,,,-99.99,,2013-06-16 14:53:00,
2013-06-16 11:00:00,83.0,-99.9,30.09,East,90,10.0,13.0,-999,-99.99,,,-99.99,,2013-06-16 15:00:00,
2013-06-16 11:34:00,83.0,-99.9,30.09,East,90,10.0,13.0,-999,-99.99,,,-99.99,,2013-06-16 15:34:00,
2013-06-16 11:43:00,83.0,-99.9,30.09,East,90,10.0,13.0,-999,-99.99,,,-99.99,,2013-06-16 15:43:00,
2013-06-16 11:53:00,83.0,-99.9,30.09,East,90,10.0,13.0,-999,-99.99,,,-99.99,,2013-06-16 15:53:00,
2013-06-16 12:00:00,84.0,-99.9,30.09,East,90,13.0,14.0,-999,-99.99,,,-99.99,,2013-06-16 16:00:00,
2013-06-16 12:34:00,84.0,-99.9,30.09,East,90,13.0,14.0,-999,-99.99,,,-99.99,,2013-06-16 16:34:00,
2013-06-16 12:43:00,84.0,-99.9,30.09,East,90,13.0,14.0,-999,-99.99,,,-99.99,,2013-06-16 16:43:00,
2013-06-16 12:53:00,84.0,-99.9,30.09,East,90,13.0,14.0,-999,-99.99,,,-99.99,,2013-06-16 16:53:00,
2013-06-16 13:00:00,83.0,-99.9,30.08,ESE,110,12.0,14.0,-999,-99.99,,,-99.99,,2013-06-16 17:00:00,
2013-06-16 13:22:00,83.0,-99.9,30.08,ESE,110,12.0,14.0,-999,-99.99,,,-99.99,,2013-06-16 17:22:00,
2013-06-16 13:34:00,83.0,-99.9,30.08,ESE,110,12.0,14.0,-999,-99.99,,,-99.99,,2013-06-16 17:34:00,
2013-06-16 13:43:00,83.0,-99.9,30.08,ESE,110,12.0,14.0,-999,-99.99,,,-99.99,,2013-06-16 17:43:00,
2013-06-16 13:53:00,83.0,-99.9,30.08,ESE,110,12.0,14.0,-999,-99.99,,,-99.99,,2013-06-16 17:53:00,
2013-06-16 15:00:00,83.0,-99.9,30.07,ESE,110,9.0,10.0,-999,-99.99,,,-99.99,,2013-06-16 19:00:00,
2013-06-16 15:22:00,83.0,-99.9,30.07,ESE,110,9.0,10.0,-999,-99.99,,,-99.99,,2013-06-16 19:22:00,
2013-06-16 15:34:00,83.0,-99.9,30.07,ESE,110,9.0,10.0,-999,-99.99,,,-99.99,,2013-06-16 19:34:00,
2013-06-16 15:43:00,83.0,-99.9,30.07,ESE,110,9.0,10.0,-999,-99.99,,,-99.99,,2013-06-16 19:43:00,
2013-06-16 15:54:00,83.0,-99.9,30.07,ESE,110,9.0,10.0,-999,-99.99,,,-99.99,,2013-06-16 19:54:00,
2013-06-16 16:00:00,83.0,-99.9,30.04,ENE,70,7.0,8.0,-999,-99.99,,,-99.99,,2013-06-16 20:00:00,
2013-06-16 16:34:00,83.0,-99.9,30.04,ENE,70,7.0,8.0,-999,-99.99,,,-99.99,,2013-06-16 20:34:00,
2013-06-16 16:43:00,83.0,-99.9,30.04,ENE,70,7.0,8.0,-999,-99.99,,,-99.99,,2013-06-16 20:43:00,
2013-06-16 16:53:00,83.0,-99.9,30.04,ENE,70,7.0,8.0,-999,-99.99,,,-99.99,,2013-06-16 20:53:00,
2013-06-16 20:00:00,83.0,-99.9,30.06,ESE,110,16.0,17.0,-999,-99.99,,,-99.99,,2013-06-17 00:00:00,
2013-06-16 21:00:00,83.0,-99.9,30.07,ESE,120,16.0,18.0,-999,-99.99,,,-99.99,,2013-06-17 01:00:00,
2013-06-16 21:43:00,83.0,-99.9,30.07,ESE,120,16.0,18.0,-999,-99.99,,,-99.99,,2013-06-17 01:43:00,
2013-06-16 21:53:00,83.0,-99.9,30.07,ESE,120,16.0,18.0,-999,-99.99,,,-99.99,,2013-06-17 01:53:00,
2013-06-16 22:00:00,83.0,-99.9,30.08,SE,130,13.0,15.0,-999,-99.99,,,-99.99,,2013-06-17 02:00:00,
2013-06-16 22:34:00,83.0,-99.9,30.08,SE,130,13.0,15.0,-999,-99.99,,,-99.99,,2013-06-17 02:34:00,
2013-06-16 22:43:00,83.0,-99.9,30.08,SE,130,13.0,15.0,-999,-99.99,,,-99.99,,2013-06-17 02:43:00,
2013-06-16 22:53:00,83.0,-99.9,30.08,SE,130,13.0,15.0,-999,-99.99,,,-99.99,,2013-06-17 02:53:00,